Weather History for Milton, FL

Change the Weather History Date:

Saturday, November 26, 2011

  Actual Average (KNSE) Record (KNSE)
Temperature  
Mean Temperature 68 °F -  
Max Temperature 75 °F 65 °F 78 °F (2001)
Min Temperature 60 °F 46 °F 32 °F (2008)
Cooling Degree Days 2    
Growing Degree Days 18 (Base 50)    
Moisture  
Dew Point 58 °F    
Average Humidity 71    
Maximum Humidity 87    
Minimum Humidity 52    
Precipitation  
Precipitation 0.00 in - - ()
Sea Level Pressure  
Sea Level Pressure 30.06 in    
Wind  
Wind Speed 11 mph (SE)    
Max Wind Speed 20 mph    
Max Gust Speed 29 mph    
Visibility 10 miles    
Events      
Averages and records for this station are not official NWS values.
T = Trace of Precipitation, MM = Missing Value Source: NWS Daily Summary

Daily Weather History Graph

Daily Weather History Graph

Search for Another Location

Airport:

Trip Planner

Search our weather history database for the weather conditions in past years. The results will help you decide how hot, cold, wet, or windy it might be!

Date:

Astronomy

Nov. 26, 2011 Rise Set
Actual Time 6:23 AM CST 4:46 PM CST
Civil Twilight 5:57 AM CST 5:12 PM CST
Nautical Twilight 5:27 AM CST 5:42 PM CST
Astronomical Twilight 4:58 AM CST 6:11 PM CST
Moon 7:50 AM CST (11/26) 6:21 PM CST (11/26)
Length of Visible Light 11h 15m
Length of Day
10h 23m
Waxing Crescent, 3% of the Moon is Illuminated
Nov 26
Waxing Crescent
Dec 2
First Quarter
Dec 10
Full
Dec 17
Last Quarter
Dec 24
New

Hourly Weather History & Observations

Time (CST) Temp. Dew Point Humidity Pressure Visibility Wind Dir Wind Speed Gust Speed Precip Events Conditions
12:56 AM 61.0 °F 52.0 °F 72% 30.11 in 10.0 mi ESE 10.4 mph - N/A   Mostly Cloudy
1:56 AM 62.1 °F 53.1 °F 72% 30.10 in 10.0 mi East 6.9 mph - N/A   Mostly Cloudy
2:56 AM 62.1 °F 52.0 °F 70% 30.09 in 10.0 mi East 10.4 mph - N/A   Mostly Cloudy
3:56 AM 60.1 °F 52.0 °F 75% 30.08 in 10.0 mi East 9.2 mph - N/A   Clear
4:56 AM 60.1 °F 53.1 °F 78% 30.09 in 10.0 mi East 8.1 mph - N/A   Clear
5:56 AM 61.0 °F 55.0 °F 81% 30.11 in 10.0 mi East 6.9 mph - N/A   Overcast
6:56 AM 61.0 °F 55.0 °F 81% 30.12 in 10.0 mi East 6.9 mph - N/A   Mostly Cloudy
7:56 AM 66.0 °F 55.9 °F 70% 30.13 in 10.0 mi East 10.4 mph - N/A   Partly Cloudy
8:56 AM 71.1 °F 57.0 °F 61% 30.14 in 10.0 mi ESE 11.5 mph - N/A   Partly Cloudy
9:56 AM 75.0 °F 57.9 °F 55% 30.12 in 10.0 mi SE 19.6 mph - N/A   Clear
10:56 AM 75.0 °F 57.9 °F 55% 30.12 in 10.0 mi SSE 19.6 mph 27.6 mph N/A   Scattered Clouds
11:56 AM 75.9 °F 57.0 °F 52% 30.09 in 10.0 mi SSE 16.1 mph 27.6 mph N/A   Mostly Cloudy
12:56 PM 75.9 °F 57.0 °F 52% 30.06 in 10.0 mi SE 19.6 mph 28.8 mph N/A   Mostly Cloudy
1:56 PM 75.0 °F 57.9 °F 55% 30.04 in 10.0 mi SE 17.3 mph 25.3 mph N/A   Mostly Cloudy
2:56 PM 73.9 °F 57.9 °F 57% 30.04 in 10.0 mi SE 16.1 mph 27.6 mph N/A   Scattered Clouds
3:56 PM 72.0 °F 60.1 °F 66% 30.04 in 10.0 mi SSE 12.7 mph 23.0 mph N/A   Partly Cloudy
4:56 PM 69.1 °F 60.1 °F 73% 30.03 in 10.0 mi SE 12.7 mph 21.9 mph N/A   Clear
5:56 PM 68.0 °F 61.0 °F 78% 30.03 in 10.0 mi SE 11.5 mph - N/A   Clear
6:56 PM 68.0 °F 62.1 °F 81% 30.01 in 10.0 mi SE 11.5 mph - N/A   Clear
7:56 PM 69.1 °F 62.1 °F 78% 30.01 in 10.0 mi SE 17.3 mph - N/A   Partly Cloudy
8:56 PM 69.1 °F 63.0 °F 81% 30.01 in 10.0 mi SE 13.8 mph - N/A   Partly Cloudy
9:56 PM 69.1 °F 64.0 °F 84% 30.01 in 10.0 mi SE 11.5 mph - N/A   Mostly Cloudy
10:56 PM 68.0 °F 64.0 °F 87% 30.00 in 10.0 mi SE 10.4 mph - N/A   Mostly Cloudy
11:56 PM 69.1 °F 64.0 °F 84% 29.97 in 10.0 mi SE 8.1 mph - N/A   Overcast